Change the Weather History Date:

Wednesday, August 7, 2013

  Actual Average Record
Temperature  
Mean Temperature 73 °F 72 °F  
Max Temperature 81 °F 82 °F 99 °F (1918)
Min Temperature 65 °F 63 °F 46 °F (1989)
Degree Days  
Heating Degree Days 0 0  
Month to date heating degree days 1 0  
Since 1 June heating degree days 52 49  
Since 1 July heating degree days 15 5  
Cooling Degree Days 8 7  
Month to date cooling degree days 26 51  
Year to date cooling degree days 516 525  
Since 1 June cooling degree days 420 469  
Growing Degree Days 24 (Base 50)    
Moisture  
Dew Point 67 °F    
Average Humidity 85    
Maximum Humidity 94    
Minimum Humidity 69    
Precipitation  
Precipitation 1.28 in 0.13 in 1.28 in (2013)
Month to date precipitation 2.58 0.88  
Year to date precipitation 26.47 22.39  
Snow  
Snow 0.00 in - - ()
Month to date snowfall 0.0  
Since 1 June snowfall 0.0  
Snow Depth 0.00 in    
Sea Level Pressure  
Sea Level Pressure 29.87 in    
Wind  
Wind Speed 7 mph (SSW)    
Max Wind Speed 38 mph    
Max Gust Speed 49 mph    
Visibility 6 miles    
Events Fog , Rain , Thunderstorm    
T = Trace of Precipitation, MM = Missing Value Source: NWS Daily Summary

Daily Weather History Graph

Daily Weather History Graph

Search for Another Location

Airport or City:

Trip Planner

Search our weather history database for the weather conditions in past years. The results will help you decide how hot, cold, wet, or windy it might be!

Date:

Astronomy

Aug. 07, 2013 Rise Set
Actual Time 6:45 AM EDT 8:55 PM EDT
Civil Twilight 6:15 AM EDT 9:26 PM EDT
Nautical Twilight 5:37 AM EDT 10:03 PM EDT
Astronomical Twilight 4:55 AM EDT 10:44 PM EDT
Moon 7:35 AM EDT (8/7) 9:00 PM EDT (8/7)
Length of Visible Light 15h 11m
Length of Day
14h 09m
New Moon, 1% of the Moon is Illuminated
Aug 7
New Moon
Aug 14
First Quarter
Aug 20
Full
Aug 28
Last Quarter
Sep 5
New

Hourly Weather History & Observations

Time (EDT) Temp. Heat Index Dew Point Humidity Pressure Visibility Wind Dir Wind Speed Gust Speed Precip Events Conditions
12:54 AM 70.0 °F - 66.9 °F 90% 29.88 in 8.0 mi South 5.8 mph - N/A   Clear
1:54 AM 70.0 °F - 66.9 °F 90% 29.88 in 8.0 mi South 4.6 mph - N/A   Clear
2:54 AM 70.0 °F - 66.9 °F 90% 29.87 in 7.0 mi SSW 5.8 mph - N/A   Clear
3:54 AM 70.0 °F - 68.0 °F 93% 29.86 in 6.0 mi South 6.9 mph - N/A   Clear
4:54 AM 70.0 °F - 68.0 °F 93% 29.83 in 5.0 mi SSW 5.8 mph - N/A   Clear
5:54 AM 70.0 °F - 68.0 °F 93% 29.84 in 5.0 mi SW 6.9 mph - N/A   Clear
6:46 AM 69.8 °F - 68.0 °F 94% 29.84 in 4.0 mi SSW 8.1 mph - N/A   Partly Cloudy
6:54 AM 70.0 °F - 68.0 °F 93% 29.83 in 2.5 mi SSW 8.1 mph - N/A   Scattered Clouds
7:00 AM 69.8 °F - 68.0 °F 94% 29.84 in 3.0 mi SSW 9.2 mph - N/A   Mostly Cloudy
7:54 AM 71.1 °F - 69.1 °F 93% 29.84 in 4.0 mi SW 8.1 mph - N/A   Mostly Cloudy
8:19 AM 71.6 °F - 69.8 °F 94% 29.87 in 5.0 mi SSW 8.1 mph - N/A   Mostly Cloudy
8:54 AM 73.0 °F - 69.1 °F 87% 29.86 in 6.0 mi SSW 11.5 mph - N/A   Overcast
9:54 AM 75.9 °F - 70.0 °F 82% 29.86 in 10.0 mi SW 10.4 mph - N/A   Clear
10:50 AM 75.2 °F - 66.2 °F 73% 29.89 in 10.0 mi NE 9.2 mph - N/A   Mostly Cloudy
10:54 AM 73.0 °F - 66.0 °F 79% 29.87 in 10.0 mi NE 8.1 mph - N/A   Overcast
11:54 AM 75.0 °F - 64.9 °F 71% 29.88 in 10.0 mi SE 9.2 mph - N/A   Overcast
12:51 PM 80.6 °F 83.9 °F 69.8 °F 70% 29.88 in 10.0 mi SSE 8.1 mph - N/A   Mostly Cloudy
12:54 PM 80.1 °F 82.9 °F 69.1 °F 69% 29.86 in 10.0 mi SSE 8.1 mph - N/A   Mostly Cloudy
1:28 PM 80.6 °F 83.9 °F 69.8 °F 70% 29.86 in 10.0 mi South 8.1 mph - N/A Thunderstorm Scattered Clouds
1:54 PM 79.0 °F - 71.1 °F 77% 29.84 in 10.0 mi South 5.8 mph - 0.01 in Rain , Thunderstorm Light Rain
2:12 PM 71.6 °F - 64.4 °F 78% 29.89 in 1.8 mi NW 28.8 mph 40.3 mph 0.00 in Rain , Thunderstorm Light Thunderstorms and Rain
2:15 PM 68.0 °F - 62.6 °F 83% 29.89 in 0.5 mi NNW 27.6 mph 40.3 mph 0.04 in Rain , Thunderstorm Heavy Thunderstorms and Rain
2:20 PM 68.0 °F - 62.6 °F 83% 29.86 in 0.2 mi NNE 33.4 mph 43.7 mph 0.28 in Rain , Thunderstorm Heavy Thunderstorms and Rain
2:22 PM 68.0 °F - 62.6 °F 83% 29.86 in 0.5 mi NNE 26.5 mph 43.7 mph 0.31 in Rain , Thunderstorm Heavy Thunderstorms and Rain
2:25 PM 69.8 °F - 62.6 °F 78% 29.87 in 0.8 mi NE 18.4 mph 43.7 mph 0.31 in Rain , Thunderstorm Light Thunderstorms and Rain
2:29 PM 69.8 °F - 62.6 °F 78% 29.86 in 2.0 mi ENE 8.1 mph 31.1 mph 0.31 in Rain , Thunderstorm Light Thunderstorms and Rain
2:44 PM 69.8 °F - 64.4 °F 83% 29.86 in 9.0 mi ENE 4.6 mph - 0.41 in Rain , Thunderstorm Light Rain
2:54 PM 71.1 °F - 64.9 °F 81% 29.86 in 10.0 mi East 5.8 mph - 0.41 in Thunderstorm Scattered Clouds
3:42 PM 69.8 °F - 66.2 °F 88% 29.89 in 1.2 mi NW 23.0 mph 31.1 mph 0.04 in Rain , Thunderstorm Heavy Thunderstorms and Rain
3:44 PM 69.8 °F - 64.4 °F 83% 29.89 in 0.5 mi WNW 32.2 mph 49.5 mph 0.08 in Fog , Rain , Thunderstorm Heavy Thunderstorms and Rain
3:52 PM 73.4 °F - 66.2 °F 78% 29.90 in 0.2 mi SSW 8.1 mph 49.5 mph 0.62 in Rain , Thunderstorm Heavy Thunderstorms and Rain
3:54 PM 73.0 °F - 66.0 °F 79% 29.89 in 0.2 mi SSW 10.4 mph 36.8 mph 0.65 in Rain , Thunderstorm Heavy Thunderstorms and Rain
3:58 PM 71.6 °F - 64.4 °F 78% 29.88 in 0.8 mi South 5.8 mph - 0.06 in Rain , Thunderstorm Heavy Thunderstorms and Rain
4:05 PM 69.8 °F - 66.2 °F 88% 29.88 in 1.5 mi SW 9.2 mph - 0.15 in Rain , Thunderstorm Thunderstorms and Rain
4:08 PM 69.8 °F - 66.2 °F 88% 29.88 in 2.5 mi SW 8.1 mph - 0.16 in Rain , Thunderstorm Heavy Thunderstorms and Rain
4:15 PM 69.8 °F - 66.2 °F 88% 29.87 in 4.0 mi SW 4.6 mph - 0.18 in Rain , Thunderstorm Thunderstorms and Rain
4:51 PM 69.8 °F - 66.2 °F 88% 29.86 in 10.0 mi South 6.9 mph - 0.18 in Rain Light Rain
4:54 PM 70.0 °F - 68.0 °F 93% 29.85 in 10.0 mi South 6.9 mph - 0.18 in Rain Light Rain
5:54 PM 71.1 °F - 66.9 °F 87% 29.85 in 10.0 mi Calm Calm - 0.01 in Rain Light Rain
6:26 PM 71.6 °F - 69.8 °F 94% 29.88 in 7.0 mi WSW 5.8 mph - 0.00 in Rain , Thunderstorm Light Thunderstorms and Rain
6:49 PM 71.6 °F - 68.0 °F 88% 29.87 in 10.0 mi South 4.6 mph - 0.02 in Rain Light Rain
6:54 PM 71.1 °F - 68.0 °F 90% 29.87 in 10.0 mi SSW 5.8 mph - 0.02 in Rain Light Rain
7:54 PM 73.0 °F - 69.1 °F 87% 29.87 in 10.0 mi NW 3.5 mph - 0.00 in   Scattered Clouds
8:54 PM 71.1 °F - 68.0 °F 90% 29.88 in 10.0 mi Calm Calm - N/A   Clear
9:27 PM 69.8 °F - 68.0 °F 94% 29.92 in 8.0 mi South 5.8 mph - N/A   Mostly Cloudy
9:54 PM 71.1 °F - 69.1 °F 93% 29.91 in 9.0 mi WNW 4.6 mph - N/A   Overcast
10:54 PM 71.1 °F - 68.0 °F 90% 29.93 in 9.0 mi NNW 11.5 mph - N/A   Mostly Cloudy
11:05 PM 69.8 °F - 66.2 °F 88% 29.95 in 9.0 mi NNW 8.1 mph - N/A   Scattered Clouds
11:54 PM 66.9 °F - 63.0 °F 87% 29.93 in 10.0 mi North 5.8 mph - N/A   Clear